Weather in Pokrovka

Russia / Altai Krai     52°46′27″N   81°52′43″E
temp.,
°C
wind,
m/s
gust,
m/s
humid.,
%
clouds,
%
prec.,
mm/h
press.,
hPa
HPBL,
m
19 april, mon
mon1901:00+8w6157697 0.1 1006521
04:00+6wnw101393100 0.5 10071131
07:00−3nw9157393 0.7 1014827
10:00−2nnw795474 0.0 10191116
13:000nw664497 0.0 10221488
16:00+1nnw553652 0.0 10221793
19:000nnw553660 0.0 10231687
22:00−3n56465 0.0 1024807
20 april, tue
tue2001:00−4nne56435 0.0 1025978
04:00−5nne554997 0.0 10251195
07:00−5n4545100 0.0 10261252
10:00−4n5537100 0.0 10271681
13:00−2n443198 0.0 10261903
16:00−1n452926 0.0 10261975
19:00−1nne453462 0.0 10261809
22:00−3n35525 0.0 1027108
21 april, wed
wed2101:00−4n24550 0.0 1026113
04:00−4nnw12515 0.0 102557
07:00−3w1247100 0.0 1025187
10:00−1wsw3436100 0.0 10241073
13:00+1wsw4532100 0.0 10231427
16:00+3w4538100 0.0 10221828
19:00+1wsw1268100 0.0 1023707
22:00−1ese129599 0.6 1025167
22 april, thu
thu2201:00−1e2493100 0.7 1026261
04:00−1ne4584100 0.5 1028319
07:00−1ne477392 0.5 1031374
10:00+1ne675496 0.0 10341454
13:00+3nne6744100 0.1 10351958
16:00+4nne6741100 0.0 10362144
19:00+3nne6844100 0.0 10381701
22:000nne510615 0.0 1040464
23 april, fri
fri2301:00−1nne511720 0.0 1041395
04:00−2nne510775 0.0 1041415
07:00−2nne511805 0.0 1041517
10:00+2ne79515 0.0 10411015
13:00+5ne7937100 0.0 10392431
16:00+6ne6835100 0.0 10382333
19:00+5ne6843100 0.1 10371768
22:00+3nne41057100 0.1 1037453